TimeCST,TemperatureF,Dew PointF,Humidity,Sea Level PressureIn,VisibilityMPH,Wind Direction,Wind SpeedMPH,Gust SpeedMPH,PrecipitationIn,Events,Conditions,WindDirDegrees,DateUTC
12:45 AM,80.6,73.4,79,29.89,8.0,Calm,Calm,-,N/A,,Scattered Clouds,0,2012-11-08 06:45:00
1:45 AM,80.6,73.4,79,29.89,8.0,Calm,Calm,-,N/A,,Scattered Clouds,0,2012-11-08 07:45:00
2:45 AM,78,76,90,29.88,6,East,2.2,,,,Scattered Clouds,80,2012-11-08 08:45:00
2:45 AM,78.8,73.4,83,29.94,8.0,Calm,Calm,-,N/A,,Scattered Clouds,0,2012-11-08 08:45:00
3:45 AM,78.8,73.4,83,29.89,8.0,Calm,Calm,-,N/A,,Scattered Clouds,0,2012-11-08 09:45:00
4:45 AM,78.8,73.4,83,29.89,8.0,Calm,Calm,-,N/A,,Scattered Clouds,0,2012-11-08 10:45:00
5:45 AM,77,76,94,29.89,6,NNW,2.2,,,,Scattered Clouds,340,2012-11-08 11:45:00
5:45 AM,77.0,73.4,89,29.90,8.0,Calm,Calm,-,N/A,,Scattered Clouds,0,2012-11-08 11:45:00
6:45 AM,77.0,73.4,89,29.90,8.0,Calm,Calm,-,N/A,,Scattered Clouds,0,2012-11-08 12:45:00
7:43 AM,80.6,75.2,84,29.91,7.0,Calm,Calm,-,N/A,,Mostly Cloudy,0,2012-11-08 13:43:00
8:46 AM,84.2,75.2,74,29.94,7.0,Calm,Calm,-,N/A,,Mostly Cloudy,0,2012-11-08 14:46:00
8:50 AM,81,75,76,29.93,12,South,2.2,,,,Partly Cloudy,180,2012-11-08 14:50:00
9:47 AM,84.2,77.0,79,29.93,7.0,Calm,Calm,-,N/A,,Mostly Cloudy,0,2012-11-08 15:47:00
10:51 AM,87.8,75.2,66,29.92,8.0,Calm,Calm,-,N/A,,Mostly Cloudy,0,2012-11-08 16:51:00
11:50 AM,92,74,47,29.89,12,NNW,4.5,,,,Scattered Clouds,330,2012-11-08 17:50:00
11:50 AM,89.6,75.2,62,29.88,8.0,SSW,8.1,-,N/A,,Mostly Cloudy,200,2012-11-08 17:50:00
12:45 PM,87.8,75.2,66,29.88,8.0,WSW,5.8,-,N/A,,Mostly Cloudy,240,2012-11-08 18:45:00
1:45 PM,89.6,75.2,62,29.86,8.0,WSW,5.8,-,N/A,,Mostly Cloudy,240,2012-11-08 19:45:00
2:42 PM,89.6,75.2,62,29.85,8.0,South,9.2,-,N/A,,Mostly Cloudy,170,2012-11-08 20:42:00
2:45 PM,90,77,58,29.83,12,NE,6.7,,,,Partly Cloudy,40,2012-11-08 20:45:00
3:45 PM,87.8,75.2,66,29.83,8.0,SSW,8.1,-,N/A,,Mostly Cloudy,200,2012-11-08 21:45:00
4:42 PM,87.8,75.2,66,29.83,8.0,SSW,5.8,-,N/A,,Mostly Cloudy,210,2012-11-08 22:42:00
5:43 PM,86.0,77.0,74,29.84,8.0,Calm,Calm,-,N/A,,Scattered Clouds,0,2012-11-08 23:43:00
5:50 PM,85,77,70,29.84,12,NE,6.7,,,,Scattered Clouds,50,2012-11-08 23:50:00
6:45 PM,86.0,77.0,74,29.85,8.0,Calm,Calm,-,N/A,,Scattered Clouds,0,2012-11-09 00:45:00
7:42 PM,84.2,77.0,79,29.86,8.0,Calm,Calm,-,N/A,,Scattered Clouds,0,2012-11-09 01:42:00
8:42 PM,82.4,77.0,84,29.91,8.0,Calm,Calm,-,N/A,,Scattered Clouds,0,2012-11-09 02:42:00
8:50 PM,81,76,82,29.91,6,SE,2.2,,,,Scattered Clouds,140,2012-11-09 02:50:00
9:43 PM,82.4,78.8,89,29.89,8.0,Calm,Calm,-,N/A,,Clear,0,2012-11-09 03:43:00
10:45 PM,80.6,75.2,84,29.90,8.0,Calm,Calm,-,N/A,,Clear,0,2012-11-09 04:45:00
11:45 PM,78.8,75.2,89,29.86,8.0,Calm,Calm,-,N/A,,Clear,0,2012-11-09 05:45:00